Haines, AK

10:43 PM AKDT on September 01, 2015 (GMT -0800)
Letnikof Cove | | Change Station
CLOSE
Current Station
Personal Weather Station
Location: Haines, AK
Elevation: 230 ft
Nearby Weather Stations

Elev 230 ft 59.17 °N, 135.39 °W | Updated 24 seconds ago

Overcast
Overcast
52.2 °F
Feels Like 52.2 °F
N
5.4
Wind Variable Wind from NNE
Gusts 8.7 mph

Today
High -- | Low -- °F
--% Chance of Precip.
Yesterday
High -- | Low -- °F
Precip. -- in
5:58 AM 8:03 PM
Waning Gibbous, 83% visible
Pressure 29.88 in
Visibility 10.0 miles
Clouds Overcast 7500 ft
Dew Point 35 °F
Humidity 52%
Rainfall 0.00 in
Snow Depth Not available.
UV 0.0 out of 12
Pollen Not available.
Air Quality Not available.
Flu Activity Not available.
METAR PAHN 020554Z AUTO 33009G15KT 10SM OVC075 12/01 A2988 RMK AO2 SLP119 T01170006 10144 20083 51016 TSNO
Pressure 29.88 in
Visibility 10.0 miles
Clouds Overcast 7500 ft
Dew Point 35 °F
Humidity 52%
Rainfall 0.00 in
Snow Depth Not available.
UV 0.0 out of 12
Pollen Not available.
Air Quality Not available.
Flu Activity Not available.
METAR PAHN 020554Z AUTO 33009G15KT 10SM OVC075 12/01 A2988 RMK AO2 SLP119 T01170006 10144 20083 51016 TSNO

10-Day Weather Forecast

×

Almanac

Astronomy

Sep. 01, 2015 Rise Set
Actual Time
Civil Twilight
Nautical Twilight
Astronomical Twilight
Moon
Length of Visible Light
Length of Day
Tomorrow will be .
, % of the Moon is Illuminated

Today's Extremes

State Highs State Lows

Community

WunderPhotos

Upload Photos

1,851,709 photos uploaded!

WunderBlogs® & News

Nearby

Air Quality

  Air Quality AQ Index Pollutant
Not available.

Snow Depth

Station Depth Elevation

Earthquake Activity

City Distance Mag. Time & Date
Minimum magnitude displayed is 2.5.

Coastal Water Temperatures

Place Temperature

Stations

Nearby Weather Stations

Station Location Temp. Windchill Dew Point Humidity Wind Precip. Elev Updated Type